Location: Gerlach
(40.6516°N, 119.3568°W)
Time: 09:36:58
(UTC-08:00)

Altair - All Passes

Search period start: 30 January 2023 00:00
Search period end: 09 February 2023 00:00
Orbit: 1501 x 1683 km, 47.2° (Epoch: 29 January)

Date Brightness Start Highest point End Pass type
(mag) Time Alt. Az. Time Alt. Az. Time Alt. Az.
30 Jan - 00:51:59 10° WNW 01:02:07 72° NNE 01:12:18 10° ESE night (unlit)
30 Jan - 02:57:09 10° WNW 03:07:00 58° SW 03:16:45 10° SE visible
30 Jan - 05:04:45 10° W 05:10:13 16° WSW 05:15:39 10° SSW visible
30 Jan - 18:13:33 10° S 18:21:29 30° SE 18:29:39 10° ENE visible
30 Jan - 20:15:35 10° SW 20:25:18 83° SSE 20:35:26 10° ENE visible
30 Jan - 22:20:58 10° W 22:30:47 62° N 22:40:52 10° ENE visible
31 Jan - 00:26:44 10° WNW 00:36:50 70° NNE 00:46:59 10° E night (unlit)
31 Jan - 02:31:53 10° WNW 02:41:49 62° SW 02:51:41 10° SE visible
31 Jan - 04:38:58 10° W 04:45:09 18° WSW 04:51:18 10° SSW visible
31 Jan - 17:48:49 10° S 17:56:24 27° SE 18:04:12 10° ENE visible
31 Jan - 19:50:26 10° SW 20:00:06 79° SSE 20:10:10 10° ENE visible
31 Jan - 21:55:41 10° W 22:05:28 63° N 22:15:34 10° ENE visible
01 Feb - 00:01:29 10° WNW 00:11:32 68° NNE 00:21:40 10° E night (unlit)
01 Feb - 02:06:38 10° WNW 02:16:38 66° SW 02:26:35 10° SE visible
01 Feb - 04:13:19 10° W 04:20:05 21° SW 04:26:50 10° SSW visible
01 Feb - 17:24:09 10° S 17:31:20 25° SE 17:38:43 10° ENE daylight
01 Feb - 19:25:18 10° SW 19:34:54 75° SE 19:44:54 10° ENE visible
01 Feb - 21:30:24 10° W 21:40:10 64° N 21:50:15 10° ENE visible
01 Feb - 23:36:14 10° WNW 23:46:13 66° NNE 23:56:21 10° E visible
02 Feb - 01:41:23 10° WNW 01:51:26 70° SW 02:01:28 10° SE visible
02 Feb - 03:47:44 10° W 03:55:01 23° SW 04:02:15 10° S visible
02 Feb - 16:59:32 10° S 17:06:17 22° SE 17:13:11 10° E daylight
02 Feb - 19:00:12 10° SW 19:09:43 70° SE 19:19:38 10° ENE visible
02 Feb - 21:05:07 10° W 21:14:52 65° NNW 21:24:56 10° ENE visible
02 Feb - 23:10:58 10° WNW 23:20:55 64° NNE 23:31:02 10° E visible
03 Feb - 01:16:08 10° WNW 01:26:13 74° SW 01:36:19 10° SE night (unlit)
03 Feb - 03:22:13 10° WNW 03:29:55 25° SW 03:37:35 10° S visible
03 Feb - 16:35:01 10° SSE 16:41:14 20° SE 16:47:36 10° E daylight
03 Feb - 18:35:07 10° SW 18:44:32 66° SE 18:54:22 10° ENE visible
03 Feb - 20:39:51 10° W 20:49:34 67° NNW 20:59:39 10° ENE visible
03 Feb - 22:45:42 10° WNW 22:55:36 63° N 23:05:42 10° E visible
04 Feb - 00:50:54 10° WNW 01:01:00 78° SSW 01:11:09 10° SE night (unlit)
04 Feb - 02:56:45 10° WNW 03:04:50 28° SW 03:12:52 10° S visible
04 Feb - 16:10:35 10° SSE 16:16:12 17° ESE 16:21:55 10° E daylight
04 Feb - 18:10:04 10° SW 18:19:23 62° SE 18:29:05 10° ENE visible
04 Feb - 20:14:35 10° W 20:24:17 69° NNW 20:34:21 10° ENE visible
04 Feb - 22:20:26 10° WNW 22:30:17 62° N 22:40:21 10° E visible
05 Feb - 00:25:40 10° WNW 00:35:46 83° SSW 00:45:58 10° SE night (unlit)
05 Feb - 02:31:20 10° WNW 02:39:43 31° SW 02:48:05 10° S night (unlit)
05 Feb - 15:46:18 10° SSE 15:51:10 15° ESE 15:56:06 10° E daylight
05 Feb - 17:45:03 10° SW 17:54:14 57° SE 18:03:48 10° ENE visible
05 Feb - 19:49:20 10° WSW 19:59:00 71° NNW 20:09:04 10° ENE visible
05 Feb - 21:55:10 10° WNW 22:04:58 61° N 22:15:01 10° E visible
06 Feb - 00:00:26 10° WNW 00:10:33 87° SSW 00:20:45 10° ESE visible
06 Feb - 02:05:57 10° WNW 02:14:37 34° SW 02:23:17 10° S night (unlit)
06 Feb - 15:22:15 10° SSE 15:26:08 13° ESE 15:30:05 10° E daylight
06 Feb - 17:20:01 10° SSW 17:29:05 53° SE 17:38:31 10° ENE daylight
06 Feb - 19:24:05 10° WSW 19:33:44 73° NNW 19:43:47 10° ENE visible
06 Feb - 21:29:55 10° WNW 21:39:39 60° N 21:49:40 10° E visible
06 Feb - 23:35:13 10° WNW 23:45:18 90° NE 23:55:31 10° ESE visible
07 Feb - 01:40:36 10° WNW 01:49:29 37° SW 01:58:24 10° SSE night (unlit)
07 Feb - 14:58:41 10° SE 15:01:07 11° ESE 15:03:35 10° ESE daylight
07 Feb - 16:55:03 10° SSW 17:03:58 49° SE 17:13:14 10° ENE daylight
07 Feb - 18:58:51 10° WSW 19:08:28 76° NNW 19:18:30 10° ENE visible
07 Feb - 21:04:38 10° WNW 21:14:20 60° N 21:24:19 10° E visible
07 Feb - 23:09:59 10° WNW 23:20:03 86° NNE 23:30:16 10° ESE visible
08 Feb - 01:15:16 10° WNW 01:24:22 40° SW 01:33:29 10° SSE night (unlit)
08 Feb - 16:30:06 10° SSW 16:38:51 45° SE 16:47:56 10° ENE daylight
08 Feb - 18:33:38 10° WSW 18:43:13 79° NNW 18:53:15 10° ENE visible
08 Feb - 20:39:22 10° WNW 20:49:01 60° N 20:58:59 10° E visible
08 Feb - 22:44:46 10° WNW 22:54:47 83° NNE 23:05:01 10° ESE visible
